Knoxville, TN

7:10 AM EDT on September 16, 2019 (GMT -0400)
McGhee Tyson

Weather History for KTYS - July, 2019

Change the Weather History Date:

Saturday, July 27, 2019

  Actual Average Record
Temperature  
Mean Temperature 76 °F 78 °F  
Max Temperature 88 °F 88 °F 103 °F (1952)
Min Temperature 64 °F 69 °F 56 °F (1911)
Degree Days  
Heating Degree Days 0 0  
Month to date heating degree days 0 0  
Since 1 June heating degree days 0 4  
Since 1 July heating degree days 0 0  
Cooling Degree Days 11 14  
Month to date cooling degree days 389 368  
Year to date cooling degree days 968 835  
Since 1 June cooling degree days 668 673  
Growing Degree Days 26 (Base 50)    
Moisture  
Dew Point 61 °F    
Average Humidity 63    
Maximum Humidity 93    
Minimum Humidity 32    
Precipitation  
Precipitation 0.00 in 0.15 in 1.98 in (1882)
Month to date precipitation 5.88 4.51  
Year to date precipitation 45.10 29.76  
Snow  
Snow 0.00 in 0.00 in - ()
Month to date snowfall 0.0 0.0  
Since 1 June snowfall 0.0 0.0  
Since 1 July snowfall 0.0 0.0  
Snow Depth 0.00 in    
Sea Level Pressure  
Sea Level Pressure 30.24 in    
Wind  
Wind Speed 2 mph (North)    
Max Wind Speed 8 mph    
Max Gust Speed 12 mph    
Visibility 10 miles    
Events      
T = Trace of Precipitation, MM = Missing Value Source: NWS Daily Summary

Daily Weather History Graph

Daily Weather History Graph

Search for Another Location

Airport or City:

Astronomy

Jul. 27, 2019 Rise Set
Actual Time 6:39 AM EDT 8:44 PM EDT
Civil Twilight 6:11 AM EDT 9:13 PM EDT
Nautical Twilight 5:36 AM EDT 9:48 PM EDT
Astronomical Twilight 4:58 AM EDT 10:25 PM EDT
Moon 2:23 AM EDT (7/27) 4:35 PM EDT (7/27)
Length of Visible Light 15h 02m
Length of Day
14h 05m
Waning Crescent, 24% of the Moon is Illuminated
Jul 27
Waning Crescent
Jul 31
New
Aug 7
First Quarter
Aug 15
Full
Aug 23
Last Quarter

Hourly Weather History & Observations

Time (EDT) Temp. Heat Index Dew Point Humidity Pressure Visibility Wind Dir Wind Speed Gust Speed Precip Events Conditions
12:53 AM 69.1 °F - 63.0 °F 81% 30.23 in 10.0 mi NE 3.5 mph - N/A   Clear
1:53 AM 69.1 °F - 64.0 °F 84% 30.23 in 10.0 mi Calm Calm - N/A   Clear
2:53 AM 66.0 °F - 62.1 °F 87% 30.23 in 10.0 mi Calm Calm - N/A   Clear
3:53 AM 64.9 °F - 62.1 °F 90% 30.23 in 10.0 mi ENE 3.5 mph - N/A   Clear
4:53 AM 64.9 °F - 62.1 °F 90% 30.23 in 10.0 mi East 3.5 mph - N/A   Clear
5:53 AM 64.9 °F - 62.1 °F 90% 30.25 in 10.0 mi NE 3.5 mph - N/A   Clear
6:53 AM 66.0 °F - 63.0 °F 90% 30.27 in 10.0 mi Calm Calm - N/A   Partly Cloudy
7:53 AM 66.9 °F - 63.0 °F 87% 30.29 in 10.0 mi Calm Calm - N/A   Clear
8:53 AM 70.0 °F - 64.0 °F 81% 30.30 in 10.0 mi Calm Calm - N/A   Clear
9:53 AM 73.9 °F - 64.0 °F 71% 30.31 in 10.0 mi Calm Calm - N/A   Partly Cloudy
10:53 AM 78.1 °F - 63.0 °F 60% 30.30 in 10.0 mi Calm Calm - N/A   Partly Cloudy
11:53 AM 82.0 °F 83.1 °F 63.0 °F 52% 30.29 in 10.0 mi ESE 3.5 mph - N/A   Partly Cloudy
12:53 PM 82.9 °F 83.7 °F 62.1 °F 49% 30.27 in 10.0 mi WNW 5.8 mph - N/A   Partly Cloudy
1:53 PM 84.0 °F 85.4 °F 64.0 °F 51% 30.25 in 10.0 mi NNW 4.6 mph - N/A   Scattered Clouds
2:53 PM 86.0 °F 85.0 °F 57.9 °F 38% 30.23 in 10.0 mi WNW 5.8 mph - N/A   Scattered Clouds
3:53 PM 87.1 °F 86.1 °F 57.9 °F 37% 30.22 in 10.0 mi Variable 3.5 mph - N/A   Scattered Clouds
4:53 PM 87.1 °F 86.1 °F 57.9 °F 37% 30.20 in 10.0 mi NNW 6.9 mph - N/A   Scattered Clouds
5:53 PM 87.1 °F 85.7 °F 55.9 °F 35% 30.19 in 10.0 mi Variable 3.5 mph - N/A   Scattered Clouds
6:53 PM 86.0 °F 84.2 °F 54.0 °F 33% 30.17 in 10.0 mi West 4.6 mph - N/A   Partly Cloudy
7:53 PM 84.9 °F 83.6 °F 55.0 °F 36% 30.18 in 10.0 mi West 3.5 mph - N/A   Partly Cloudy
8:53 PM 82.0 °F 82.1 °F 59.0 °F 45% 30.18 in 10.0 mi Calm Calm - N/A   Partly Cloudy
9:53 PM 78.1 °F - 63.0 °F 60% 30.19 in 10.0 mi Calm Calm - N/A   Partly Cloudy
10:53 PM 73.0 °F - 63.0 °F 71% 30.20 in 10.0 mi Calm Calm - N/A   Clear